[[{"header":{"parameterUnit":"m.s-1","parameterCategory":1,"la1":30.2991,"la2":30.254,"lo1":-89.0895,"lo2":-89.0444,"dy":0.0017,"dx":0.0017,"nx":28,"ny":28,"refTime":"2026-01-08T03:00:00:Z","depth":0,"parameterNumber":2,"parameterNumberName":"U-component_of_WINDS"},"data":[0,0,0,0,0,0,0,0,0,0,0,0,0,0,0,0,0,0,0,0,0,0,0,0,0,0,0,0,0,0,0,0,0,0,0,0,0,0,0,0,0,0,0,0,0,0,0,0,0,0,0,0,0,0,0,0,0,0,-2.8453,-2.8455,0,-2.8581,-2.8583,-2.8584,-2.8623,-2.8622,-2.8622,-2.8621,-2.8752,-2.8756,-2.876,0,0,0,0,0,0,0,0,0,0,0,0,0,-2.8243,-2.8247,-2.8453,-2.8455,-2.8456,-2.8581,-2.8583,-2.8585,-2.8623,-2.8622,-2.8621,-2.8621,-2.8751,-2.8756,-2.876,0,0,0,0,0,0,0,0,0,0,0,0,0,-2.8349,-2.8248,-2.8453,-2.8491,-2.8495,-2.8581,-2.8583,-2.8585,-2.8623,-2.8622,-2.8621,-2.862,-2.8749,-2.8755,-2.8761,-2.8818,0,0,-2.878,-2.8783,0,0,0,0,0,0,0,0,-2.8343,-2.8357,-2.8483,-2.8488,-2.8493,-2.8585,-2.8557,-2.8663,-2.8623,-2.8575,-2.8621,-2.862,-2.8697,-2.8708,-2.8734,-2.8825,-2.883,-2.878,-2.8784,-2.8787,-2.8789,0,0,0,0,0,0,0,-2.8336,-2.8352,-2.8504,-2.8485,-2.8491,-2.8502,-2.8515,-2.8577,-2.864,-2.8579,-2.8582,-2.8596,-2.87,-2.8728,-2.8737,-2.8832,-2.878,-2.8786,-2.8789,-2.8792,-2.8978,-2.8979,0,0,0,0,0,0,-2.8322,-2.8345,-2.85,-2.8508,-2.8414,-2.8506,-2.8522,-2.8557,-2.8639,-2.8651,-2.8597,-2.8598,-2.8718,-2.873,-2.8742,-2.8815,-2.8787,-2.8792,-2.8796,-2.8977,-2.8978,-2.8979,0,0,0,0,0,0,-2.8317,-2.8335,-2.8495,-2.8427,-2.8448,-2.8511,-2.855,-2.856,-2.8588,-2.8653,-2.8665,-2.8614,-2.8717,-2.8733,-2.8799,-2.882,-2.8795,-2.8801,-2.8975,-2.8977,-2.8979,-2.896,0,0,0,0,0,0,-2.8311,-2.8333,-2.8355,-2.8428,-2.8452,-2.8549,-2.8551,-2.8563,-2.8598,-2.86,-2.8672,-2.8683,-2.8718,-2.879,-2.8805,-2.8828,-2.8806,-2.8973,-2.8976,-2.8978,-2.8959,-2.8961,-2.8963,0,0,0,0,0,-2.8303,-2.8345,-2.8356,-2.8375,-2.8481,-2.8551,-2.8564,-2.8604,-2.86,-2.8622,-2.8665,-2.8681,-2.8815,-2.8796,-2.8814,-2.8839,-2.8972,-2.8975,-2.8978,-2.8959,-2.8961,-2.8963,0,0,0,0,0,0,-2.8273,-2.8355,-2.8368,-2.8434,-2.8485,-2.8557,-2.8587,-2.8605,-2.8658,-2.8658,-2.8704,-2.872,-2.8783,-2.8818,-2.8795,-2.8899,-2.8895,-2.8901,-2.8874,-2.8877,-2.8878,-2.8868,-2.8811,0,0,0,0,0,-2.8274,-2.8324,-2.8393,-2.8444,-2.8469,-2.8524,-2.8556,-2.8582,-2.8636,-2.8658,-2.8705,-2.8757,-2.8812,-2.8846,-2.89,-2.8965,-2.8982,-2.8991,-2.8993,-2.8994,-2.8999,-2.9037,-2.9042,-2.8989,-2.8989,-2.8989,0,0,-2.8276,-2.8327,-2.8356,-2.844,-2.8482,-2.8533,-2.8541,-2.8595,-2.8633,-2.8666,-2.8731,-2.8768,-2.883,-2.8896,-2.8927,-2.8927,-2.9018,-2.8998,-2.8998,-2.9002,-2.904,-2.9045,-2.9049,-2.8991,-2.899,-2.899,0,0,-2.8306,-2.835,-2.8398,-2.8441,-2.8505,-2.8541,-2.8553,-2.8623,-2.8648,-2.8715,-2.8741,-2.8788,-2.888,-2.8923,-2.8957,-2.9006,-2.9022,-2.9022,-2.9031,-2.9067,-2.9072,-2.9075,-2.9093,-2.9098,-2.9027,-2.9027,-2.9027,0,-2.8301,-2.8378,-2.842,-2.8473,-2.8509,-2.8542,-2.8591,-2.8631,-2.871,-2.8734,-2.8733,-2.885,-2.8894,-2.8971,-2.8983,-2.901,-2.9025,-2.9013,-2.9068,-2.9072,-2.9076,-2.9093,-2.9099,-2.9026,-2.9026,-2.9026,-2.9026,0,-2.8369,-2.8422,-2.8453,-2.8528,-2.8569,-2.8619,-2.8669,-2.8705,-2.8728,-2.8765,-2.8833,-2.8887,-2.8952,-2.8973,-2.8996,-2.9054,-2.9052,-2.9058,-2.9054,-2.908,-2.9097,-2.9103,-2.9025,-2.9026,-2.9026,-2.9026,0,0,-2.8381,-2.848,-2.8491,-2.8526,-2.86,-2.8643,-2.8695,-2.876,-2.8789,-2.8843,-2.8888,-2.8967,-2.8974,-2.9013,-2.9041,-2.9073,-2.9109,-2.9077,-2.9079,-2.908,-2.9176,-2.9169,-2.9176,-2.9121,-2.9122,-2.9124,-2.917,0,-2.842,-2.8515,-2.8555,-2.8631,-2.8681,-2.8715,-2.8761,-2.8812,-2.8848,-2.8896,-2.8937,-2.8991,-2.8997,-2.902,-2.9054,-2.9097,-2.9128,-2.9095,-2.9163,-2.9165,-2.9145,-2.9185,-2.9178,-2.9219,-2.9177,-2.9178,-2.9179,0,-2.8478,-2.8532,-2.8613,-2.8683,-2.8705,-2.8746,-2.8808,-2.8854,-2.8913,-2.8937,-2.8981,-2.9009,-2.9066,-2.906,-2.9139,-2.9115,-2.9146,-2.9172,-2.9175,-2.9182,-2.9173,-2.9192,-2.9234,-2.9239,-2.919,-2.9189,-2.9188,0,-2.8478,-2.8572,-2.8633,-2.8662,-2.8744,-2.8772,-2.8808,-2.8866,-2.8902,-2.8958,-2.8982,-2.9043,-2.9076,-2.9123,-2.9167,-2.9158,-2.9243,-2.924,-2.9264,-2.9263,-2.9279,-2.9277,-2.9325,-2.9301,-2.9301,-2.9301,-2.93,0,-2.8517,-2.8565,-2.8634,-2.8671,-2.8726,-2.8773,-2.8827,-2.8865,-2.8917,-2.8963,-2.8996,-2.9038,-2.9094,-2.9144,-2.9178,-2.9239,-2.9254,-2.9275,-2.9284,-2.9272,-2.9269,-2.9292,-2.9289,-2.9302,-2.9302,-2.9302,-2.9301,0,-2.8526,-2.8574,-2.8642,-2.8715,-2.8735,-2.8772,-2.8835,-2.8873,-2.8912,-2.8969,-2.8986,-2.9046,-2.9106,-2.9155,-2.9234,-2.9257,-2.9321,-2.9331,-2.9301,-2.9305,-2.9326,-2.9323,-2.939,-2.9401,-2.937,-2.937,-2.937,0,-2.8546,-2.8584,-2.8662,-2.8695,-2.873,-2.8783,-2.8821,-2.8869,-2.8907,-2.8978,-2.9007,-2.907,-2.9123,-2.9218,-2.9269,-2.933,-2.9341,-2.936,-2.935,-2.9337,-2.9341,-2.9337,-2.9342,-2.9361,-2.9361,-2.9361,-2.9361,0,-2.8578,-2.8601,-2.8653,-2.8715,-2.8759,-2.8809,-2.8861,-2.8886,-2.8944,-2.8985,-2.9047,-2.9088,-2.917,-2.9231,-2.9298,-2.9336,-2.9358,-2.9364,-2.9373,-2.936,-2.9341,-2.9351,-2.9302,-2.9362,-2.9362,-2.9362,-2.9362,-2.9362,-2.8594,-2.8629,-2.8689,-2.8747,-2.8791,-2.8839,-2.8878,-2.8922,-2.8975,-2.9044,-2.907,-2.9134,-2.9194,-2.9285,-2.9324,-2.9375,-2.9377,-2.9389,-2.9393,-2.9395,-2.9393,-2.9334,-2.9387,-2.9387,-2.9387,-2.9387,-2.9387,0,-2.8627,-2.8667,-2.872,-2.8792,-2.8837,-2.8855,-2.8914,-2.8951,-2.9007,-2.906,-2.9112,-2.9184,-2.9245,-2.9301,-2.9365,-2.9395,-2.9407,-2.941,-2.9408,-2.9416,-2.9388,-2.9373,-2.94,-2.94,-2.94,-2.94,-2.9399,-2.9399,-2.8649,-2.871,-2.874,-2.8823,-2.8864,-2.8927,-2.8959,-2.9003,-2.9047,-2.9125,-2.9176,-2.9213,-2.9268,-2.9336,-2.9393,-2.9409,-2.943,-2.943,-2.9448,-2.942,-2.9418,-2.9416,-2.9403,-2.9435,-2.9435,-2.9473,-2.9473,-2.9473]},{"header":{"parameterUnit":"m.s-1","parameterCategory":1,"la1":30.2991,"la2":30.254,"lo1":-89.0895,"lo2":-89.0444,"dy":0.0017,"dx":0.0017,"nx":28,"ny":28,"refTime":"2026-01-08T03:00:00:Z","depth":0,"parameterNumber":3,"parameterNumberName":"V-component_of_WINDS"},"data":[0,0,0,0,0,0,0,0,0,0,0,0,0,0,0,0,0,0,0,0,0,0,0,0,0,0,0,0,0,0,0,0,0,0,0,0,0,0,0,0,0,0,0,0,0,0,0,0,0,0,0,0,0,0,0,0,0,0,4.7931,4.7931,0,4.7994,4.7995,4.7995,4.7976,4.7975,4.7974,4.7972,4.8035,4.8038,4.8041,0,0,0,0,0,0,0,0,0,0,0,0,0,4.7795,4.7797,4.7931,4.7931,4.7932,4.7994,4.7995,4.7996,4.7976,4.7975,4.7973,4.7972,4.8034,4.8038,4.8041,0,0,0,0,0,0,0,0,0,0,0,0,0,4.7855,4.7798,4.7931,4.793,4.7931,4.7994,4.7995,4.7996,4.7977,4.7975,4.7973,4.7971,4.8033,4.8038,4.8042,4.8108,0,0,4.8055,4.8057,0,0,0,0,0,0,0,0,4.7852,4.786,4.7929,4.793,4.7931,4.7975,4.797,4.8034,4.7977,4.7959,4.7972,4.797,4.8017,4.8022,4.8039,4.8111,4.8114,4.8056,4.8058,4.806,4.8061,0,0,0,0,0,0,0,4.7848,4.7858,4.7956,4.793,4.7932,4.7927,4.7934,4.7982,4.7998,4.7961,4.7959,4.7967,4.8017,4.8034,4.804,4.8115,4.8055,4.8059,4.8062,4.8064,4.8251,4.8253,0,0,0,0,0,0,4.7843,4.7854,4.7954,4.7958,4.7886,4.7931,4.7939,4.7963,4.7998,4.8001,4.7969,4.7966,4.8028,4.8035,4.8042,4.8126,4.806,4.8064,4.8067,4.8248,4.8251,4.8254,0,0,0,0,0,0,4.784,4.7852,4.7951,4.7906,4.7918,4.7936,4.7963,4.7965,4.7983,4.8004,4.8007,4.7984,4.8027,4.8036,4.8093,4.8128,4.8066,4.807,4.8246,4.8249,4.8252,4.8292,0,0,0,0,0,0,4.7836,4.7851,4.7876,4.7906,4.792,4.8001,4.7965,4.7968,4.7991,4.7988,4.8019,4.8022,4.8026,4.8087,4.8098,4.8133,4.8074,4.8243,4.8247,4.8251,4.8288,4.8296,4.8304,0,0,0,0,0,4.7832,4.7883,4.7877,4.7889,4.7952,4.8003,4.8011,4.8015,4.7993,4.8019,4.8034,4.8021,4.8122,4.8093,4.8105,4.8142,4.824,4.8246,4.8251,4.8284,4.8295,4.8304,0,0,0,0,0,0,4.7855,4.7887,4.7881,4.7944,4.7971,4.8,4.8032,4.8025,4.8059,4.8054,4.8057,4.8065,4.8124,4.8138,4.8105,4.821,4.8178,4.8186,4.8199,4.8209,4.8217,4.8213,4.8077,0,0,0,0,0,4.7867,4.7906,4.7932,4.7985,4.7999,4.8014,4.8036,4.8037,4.8065,4.8076,4.8094,4.8122,4.816,4.8185,4.8221,4.8289,4.8298,4.8321,4.8329,4.8335,4.8343,4.8384,4.8396,4.8271,4.8271,4.8271,0,0,4.7893,4.7916,4.794,4.7991,4.8012,4.8053,4.8023,4.8067,4.8098,4.8082,4.8139,4.8154,4.8185,4.8249,4.8278,4.8263,4.8379,4.8342,4.8347,4.8351,4.8391,4.8402,4.8413,4.8275,4.8274,4.8273,0,0,4.7963,4.7982,4.8031,4.8054,4.8087,4.8097,4.8109,4.8139,4.8149,4.8206,4.8197,4.8234,4.8298,4.8323,4.8343,4.8426,4.8417,4.8438,4.848,4.8521,4.853,4.8539,4.8572,4.8584,4.8445,4.8445,4.8445,0,4.7991,4.8052,4.8056,4.8103,4.8127,4.8116,4.8167,4.8188,4.8231,4.8249,4.8231,4.8315,4.8335,4.8407,4.8428,4.8444,4.8459,4.8435,4.8529,4.8538,4.8546,4.8577,4.8589,4.8447,4.8447,4.8447,4.8446,0,4.8087,4.813,4.8166,4.821,4.8238,4.8286,4.8298,4.8326,4.8326,4.8338,4.8398,4.8422,4.8465,4.8482,4.848,4.8555,4.8545,4.8528,4.8496,4.856,4.859,4.8602,4.8451,4.845,4.8449,4.8449,0,0,4.8171,4.822,4.8233,4.8256,4.8293,4.8327,4.8376,4.8419,4.8445,4.8475,4.8518,4.8575,4.8561,4.8585,4.8586,4.8621,4.869,4.8601,4.8602,4.8619,4.8778,4.8792,4.8806,4.8684,4.8686,4.8688,4.8777,0,4.8246,4.8333,4.834,4.8418,4.846,4.8453,4.8496,4.8524,4.8538,4.8576,4.859,4.8632,4.8609,4.8624,4.8658,4.8675,4.8723,4.8668,4.8726,4.8728,4.8721,4.8821,4.8835,4.8918,4.8788,4.879,4.8791,0,4.8345,4.8382,4.8465,4.8501,4.8519,4.8557,4.86,4.8636,4.8669,4.8677,4.8705,4.8703,4.8755,4.8721,4.8794,4.8757,4.8781,4.8793,4.8796,4.8803,4.8765,4.8834,4.8943,4.8957,4.8809,4.8807,4.8806,0,4.8402,4.8472,4.8532,4.8551,4.8593,4.8621,4.864,4.8671,4.8699,4.8736,4.8754,4.8796,4.882,4.8853,4.8863,4.8836,4.8937,4.8902,4.8947,4.8947,4.8969,4.8968,4.9087,4.8981,4.898,4.898,4.898,0,4.8487,4.8539,4.8559,4.8596,4.8656,4.8663,4.8722,4.8739,4.8768,4.881,4.8804,4.8844,4.8854,4.8895,4.8903,4.8965,4.8974,4.8983,4.8985,4.8985,4.8985,4.9002,4.8998,4.8983,4.8983,4.8982,4.8982,0,4.8561,4.8576,4.8642,4.8678,4.8689,4.8731,4.8763,4.8799,4.8813,4.8866,4.8879,4.89,4.8949,4.8963,4.902,4.9026,4.91,4.9094,4.9089,4.909,4.9134,4.9131,4.9271,4.9291,4.9169,4.917,4.9171,0,4.8615,4.8655,4.8697,4.8725,4.8746,4.8791,4.882,4.883,4.886,4.8904,4.8936,4.8984,4.9024,4.9103,4.9124,4.9169,4.9167,4.9213,4.9174,4.9174,4.9172,4.917,4.9176,4.9221,4.9222,4.9223,4.9224,0,4.871,4.8717,4.8759,4.8805,4.884,4.8876,4.891,4.8934,4.8949,4.8984,4.9035,4.9066,4.9127,4.9176,4.9223,4.9243,4.9238,4.9237,4.925,4.9251,4.9248,4.9254,4.9112,4.9233,4.9233,4.9232,4.9231,4.9231,4.8778,4.8816,4.8852,4.89,4.8928,4.8962,4.8999,4.9019,4.9062,4.9114,4.9117,4.9173,4.9209,4.9271,4.9294,4.9339,4.9326,4.9344,4.9349,4.9354,4.936,4.9239,4.9347,4.9347,4.9347,4.9346,4.9346,0,4.8877,4.8901,4.8945,4.8995,4.9034,4.9026,4.9065,4.9098,4.9148,4.9182,4.9222,4.9283,4.9332,4.9358,4.9407,4.9438,4.9437,4.9451,4.945,4.9456,4.9367,4.9352,4.9451,4.9451,4.9451,4.9451,4.9451,4.9451,4.8932,4.8997,4.9008,4.9087,4.9111,4.9167,4.9191,4.9223,4.925,4.9319,4.936,4.9377,4.9409,4.9461,4.9507,4.9513,4.9533,4.9549,4.9554,4.9472,4.9461,4.9451,4.9437,4.9552,4.9553,4.964,4.964,4.9641]}]]